Regional Weather Roundup
Issued by NWS Grand Forks, ND

Home | Current Version | Previous Version | Graphics & Text | Print | Product List | Glossary On
Versions: 1 2 3 4 5 6 7 8 9 10 11 12 13 14 15 16 17 18 19 20 21 22 23 24 25 26 27 28 29 30 31 32 33 34 35 36 37 38 39 40 41 42 43 44 45 46 47 48 49 50
404
ASUS43 KFGF 241531
RWRFGF
PRAIRIE TO PINES  WEATHER ROUNDUP
NATIONAL WEATHER SERVICE EASTERN NORTH DAKOTA/GRAND FORKS ND
1000 AM CDT FRI MAR 24 2017

 **SATELLITE DATA USED TO AUGMENT SKY COVER AT AUTOMATED STATIONS**
 *****  WEATHER ACROSS EASTERN NORTH DAKOTA  *****

CITY           SKY/WX    TMP DP  RH WIND       PRES   REMARKS
GRAND FORKS    FAIR      32  28  85 N17       30.15R WCI  21
GRAND FRKS AFB FAIR      31  26  81 N17       30.16R WCI  20
DEVILS LAKE    FAIR      28  24  85 NE14      30.17R WCI  17
FARGO          CLOUDY    36  33  89 N15       30.11R
WAHPETON ARPT  CLOUDY    36  32  87 N10       30.10R
$$

 ***** WEATHER ACROSS CENTRAL AND WESTERN NORTH DAKOTA  *****

CITY           SKY/WX    TMP DP  RH WIND       PRES   REMARKS
BISMARCK       FAIR      35  30  82 NE9       30.14R
MINOT          FAIR      31  27  85 E9        30.15R WCI  23
JAMESTOWN      FAIR      33  26  75 NE10      30.12R WCI  25
MINOT AFB      FAIR      30  26  84 SE9       30.15R WCI  21
GARRISON         N/A     32  28  85 NE5       30.14R
WILLISTON      FAIR      36  31  82 CALM      30.11S
DICKINSON      FAIR      33  30  88 E6        30.08R
HETTINGER      FOG       33  32  96 NE7       30.11R VSB<1/4
$$

 *****  OTHER AIRPORT OBSERVATIONS IN OUR AREA  *****

CITY           SKY/WX    TMP DP  RH WIND       PRES   REMARKS
WALHALLA       NOT AVBL
GRAFTON AIRPOR CLOUDY    30  27  86 N13       30.20R WCI  20
VALLEY CITY AR MIX PCPN  34  30  86 NE13G20   30.15R WCI  25
CANDO          NOT AVBL
CAVALIER APRT    N/A     30  25  80 N12G17    30.19  WCI  21
GWINNER        CLOUDY    34  34 100 MISG      30.11R FOG
SHEYENNE NWR     N/A     33  33  98 N7        29.95S
ROLLA          FAIR      27  25  93 N13       30.17R WCI  16
 ***** THE ABOVE OBSERVATIONS ARE NON NWS ARE NOT QUALITY
       CONTROLLED AND MAY MIS-REPORT RAIN FOR SNOW...
$$

  *****  WEATHER ACROSS NORTHERN MINNESOTA  *****

CITY           SKY/WX    TMP DP  RH WIND       PRES   REMARKS
FLAG ISLAND    CLOUDY    32  25  74 N13       30.13R WCI  22
WARROAD        FAIR      34  27  75 N13       30.13R WCI  25
ROSEAU         FAIR      36  28  75 N15       30.13R
HALLOCK        CLOUDY    32  28  86 N14       30.17R WCI  22
THF RVR FALLS  PTSUNNY   31  26  82 N13       30.12R WCI  21
BAUDETTE       FAIR      33  27  78 NW8       30.08R
WASKISH        PTSUNNY   36  30  80 N6        30.08R
CROOKSTON      PTSUNNY   30  28  93 N16       30.15R WCI  19
STEPHEN NDAWN    N/A     30  28  93 N15         N/A  WCI  19
GREENBUSH NDAW   N/A     30  27  86 VRB12       N/A  WCI  21
$$
  *****  WEATHER ACROSS CENTRAL AND WEST MINNESOTA  *****

CITY           SKY/WX    TMP DP  RH WIND       PRES   REMARKS
FOSSTON        CLOUDY    30  28  93 N13       30.10R WCI  20
BEMIDJI        CLOUDY    33  31  93 N8        30.06R
PARK RAPIDS    CLOUDY    37  30  75 N12       30.03R
ELBOW LAKE     CLOUDY    34  33  96 N8        30.07R FOG
WADENA         CLOUDY    34  32  93 N10       30.05R
DETROIT LAKES  CLOUDY    36  32  87 N8        30.07R
MOORHEAD       CLOUDY    36  34  93 N16       30.11R FOG
FERGUS FALLS   CLOUDY    36  36 100 N8        30.11R
MORRIS MN      FAIR      37  36  93 N15       30.05R
STAPLES        CLOUDY    34  34 100 N10       30.05R FOG
$$
  *****  WEATHER ELSEWHERE ACROSS MINNESOTA  *****

CITY           SKY/WX    TMP DP  RH WIND       PRES   REMARKS
DULUTH         CLOUDY    35  33  92 N9        30.00R FOG
INTRNTL FALLS  CLOUDY    36  31  82 N8        30.05R
ELY            CLOUDY    34  32  93 CALM      30.01R FOG
CLOQUET        CLOUDY    36  34  93 N12       30.00R FOG
WHEATON        CLOUDY    36  34  93 N9        30.11R FOG
BRAINERD       CLOUDY    35  33  92 N7        30.03R FOG
HIBBING        CLOUDY    32  32 100 N9        30.01R FOG     WCI  24
ALEXANDRIA     CLOUDY    35  34  96 N12       30.04R FOG
SAINT CLOUD    FAIR      38  35  89 N8G17     30.01R
MINNEAPOLIS    CLOUDY    39  35  86 N10G22    29.99R
$$

  *****  WEATHER ACROSS SOUTH DAKOTA  *****

CITY           SKY/WX    TMP DP  RH WIND       PRES   REMARKS
SIOUX FALLS    CLOUDY    39  36  89 N16G23    29.99R
BROOKINGS      CLOUDY    36  34  92 N17G24    30.01R
WATERTOWN      CLOUDY    35  34  96 N17       30.03R FOG     WCI  25
HURON          CLOUDY    37  36  96 N17       30.06R
SISSETON         N/A     35  35 100 N13       30.09R
ABERDEEN       CLOUDY    35  31  85 N13       30.10R
MITCHELL       CLOUDY    40  36  86 N15       30.06R
PIERRE         FAIR      40  34  79 NW3       30.09R
MOBRIDGE       FAIR      40  31  70 NE7       30.07R
RAPID CITY     FAIR      47  38  71 SW5       30.10R
$$

  *****  SOME WEATHER IN NEARBY STATES *****

CITY           SKY/WX    TMP DP  RH WIND       PRES   REMARKS
GLASGOW MT     FAIR      35  32  88 SE12      30.06S
GREAT FALLS MT FAIR      39  23  52 S9        29.98S
CHEYENNE WY    CLOUDY    35  32  88 N18G25    30.10R WCI  24
SCOTTSBLUFF NE FAIR      44  35  70 N14       30.09R
OMAHA NE       LGT RAIN  49  45  86 N17       29.86R FOG
DES MOINES IA  CLOUDY    65  49  56 SW8       29.82R
DAVENPORT IA   FAIR      67  48  50 SW20G35   29.87S
CHICAGO IL     CLOUDY    66  49  54 SW17G24   29.91S
EAU CLAIRE WI  CLOUDY    38  38 100 NE6       29.94R FOG
LA CROSSE WI   CLOUDY    42  39  89 N6        29.91R FOG
$$

  *****  SOME NATIONAL WEATHER *****

CITY           SKY/WX    TMP DP  RH WIND       PRES   REMARKS
LA GUARDIA NY  PTSUNNY   46  24  42 SW17G24   30.41F
RALEIGH NC     FAIR      57  38  48 SW8       30.51S
ATLANTA GA     PTSUNNY   59  49  69 SE9       30.45R
NEW ORLEANS LA PTSUNNY   74  65  73 SE24G32   30.18R
OKLAHOMA CITY  PTSUNNY   67  56  67 S18G31    29.77S
ALBUQUERQUE NM PTSUNNY   48  27  44 NW15G24   30.01R
SALT LAKE CITY FAIR      39  33  79 SE7       30.22R
LOS ANGELES CA FAIR      55  49  80 NE6       30.25R
BOISE ID       CLOUDY    49  27  42 SE17      30.01S
SEATTLE WA     CLOUDY    46  44  93 SW6       29.78S
$$

*** WEATHER ACROSS MANITOBA...SASKATCHEWAN AND ONTARIO ***
                ***ONTARIO***

CITY           SKY/WX    TMP DP  RH WIND       PRES   REMARKS
GERALDTON      LGT SNOW  30  27  86 NE9G17    30.02R DRFTSNOWWCI  22
THUNDER BAY    CLOUDY    37  34  87 VRB2      30.00R
SIOUX LOOKOUT  CLOUDY    32  25  74 N6        30.07R
TORONTO        CLOUDY    37  36  93 S7        30.00F
BIG TROUT LK   SUNNY      1  -8  66 N7        30.30R WCI -11
PICKLE LAKE    PTSUNNY   25  14  63 N7        30.15R WCI  17
DRYDEN         CLOUDY    32  25  74 NE12      30.08R WCI  23
KENORA         CLOUDY    32  23  69 NE7       30.11R
$$
                *** MANITOBA***

CITY           SKY/WX    TMP DP  RH WIND       PRES   REMARKS
BRANDON        PTSUNNY   28  21  74 E7        30.20F WCI  21
DAUPHIN        CLOUDY    28  23  80 CALM      30.24R
ISLAND LAKE    SUNNY      3  -6  66 N5        30.37R WCI  -6
PILOT MOUND      N/A     25  21  86 N8          N/A  WCI  16
THE PAS        FLURRIES  10   3  72 SE8       30.31R WCI  -1
THOMPSON       SUNNY     -8 -17  65 SE3       30.42R
WINNIPEG       CLOUDY    30  27  86 N14       30.20R WCI  20
LYNN LAKE      PTSUNNY   -8 -13  77 SE10      30.31F WCI -26
CHURCHILL      SUNNY    -15 -22  70 NW13      30.43R WCI -37
GILLAM         MOSUNNY   -4 -15  59 W2        30.44R
$$
                ***SASKATCHEWAN***

CITY           SKY/WX    TMP DP  RH WIND       PRES   REMARKS
ESTEVAN        MOSUNNY   28  25  86 E12       30.14S WCI  18
KINDERSLEY     MOSUNNY   28  27  93 E15       30.00F WCI  17
LLOYDMINSTER   SNOW      21  21 100 SE9       30.01S VSB 1/4 WCI  11
PRINCE ALBERT  CLOUDY    27  19  74 SE10      30.17R WCI  17
REGINA         MOSUNNY   32  27  80 SE10      30.12S WCI  24
YORKTON        CLOUDY    25  21  86 S7        30.20R WCI  17
N. BATTLEFORD  SUNNY     27  27 100 SE14      30.09S WCI  15
LA RONGE       CLOUDY    25  19  80 SE8       30.15S WCI  16
SASKATOON      PTSUNNY   27  21  80 SE12      30.14S WCI  16
SWIFT CURRENT  SUNNY     30  30 100 SE8       29.99F WCI  23
$$
NOTE: THESE ARE AUTOMATED STATIONS WITH LIMITED QUALITY CONTROL
      "FAIR" INDICATES FEW OR NO CLOUDS BELOW 12,000 FEET WITH NO
      SIGNIFICANT WEATHER AND/OR OBSTRUCTIONS TO VISIBILITY.
      SKY/WX - SKY CONDITION AND SIGNIFICANT WEATHER.
      TMP - AIR TEMPERATURE.    DP   - DEWPOINT TEMPERATURE.
      RH  - RELATIVE HUMIDITY.  PRES - PRESSURE.
      HX  - HEAT INDEX.         WCI  - WIND CHILL INDEX.
$




USA.gov is the U.S. government's official web portal to all federal, state and local government web resources and services.